TimeEDT,TemperatureF,Dew PointF,Humidity,Sea Level PressureIn,VisibilityMPH,Wind Direction,Wind SpeedMPH,Gust SpeedMPH,PrecipitationIn,Events,Conditions,WindDirDegrees,DateUTC
12:58 AM,70.7,67.3,89,29.92,10.0,SE,8.1,-,N/A,,Overcast,140,2013-09-12 04:58:00
1:58 AM,70.2,67.5,91,29.92,10.0,ESE,2.3,-,N/A,,Overcast,110,2013-09-12 05:58:00
2:58 AM,68.7,66.9,94,29.92,10.0,SSW,2.3,-,N/A,,Overcast,200,2013-09-12 06:58:00
3:58 AM,67.6,65.7,93,29.93,8.0,SSE,3.5,-,N/A,,Mostly Cloudy,150,2013-09-12 07:58:00
4:58 AM,67.8,65.7,93,29.92,7.0,SSE,2.3,-,N/A,,Mostly Cloudy,150,2013-09-12 08:58:00
5:58 AM,66.7,65.8,97,29.92,7.0,SSE,6.9,-,N/A,,Mostly Cloudy,160,2013-09-12 09:58:00
6:58 AM,69.3,67.1,93,29.91,10.0,SSE,3.5,-,N/A,,Mostly Cloudy,150,2013-09-12 10:58:00
7:58 AM,72.5,67.5,84,29.90,10.0,West,2.3,-,N/A,,Mostly Cloudy,280,2013-09-12 11:58:00
8:33 AM,71.6,68.0,88,29.88,7.0,South,4.6,-,N/A,,Mostly Cloudy,170,2013-09-12 12:33:00
8:58 AM,74.3,69.1,84,29.88,7.0,SSE,5.8,-,N/A,,Mostly Cloudy,150,2013-09-12 12:58:00
9:58 AM,78.4,70.3,76,29.87,7.0,SSW,5.8,-,N/A,,Mostly Cloudy,210,2013-09-12 13:58:00
10:58 AM,81.9,72.0,72,29.84,7.0,SSW,5.8,-,N/A,,Mostly Cloudy,200,2013-09-12 14:58:00
11:58 AM,82.2,72.3,72,29.82,7.0,West,5.8,-,0.00,Rain,Light Rain,260,2013-09-12 15:58:00
12:09 PM,82.4,73.4,74,29.80,7.0,West,4.6,-,N/A,Rain-Thunderstorm,Light Rain,260,2013-09-12 16:09:00
12:13 PM,82.4,71.6,70,29.80,10.0,Variable,5.8,-,N/A,,Mostly Cloudy,0,2013-09-12 16:13:00
12:16 PM,80.6,71.6,74,29.80,7.0,West,5.8,-,N/A,Rain-Thunderstorm,Light Thunderstorms and Rain,280,2013-09-12 16:16:00
12:50 PM,78.8,71.6,78,29.80,1.2,WSW,16.1,25.3,N/A,Rain-Thunderstorm,Heavy Thunderstorms and Rain,240,2013-09-12 16:50:00
12:53 PM,78.8,71.6,78,29.81,0.5,WSW,23.0,33.4,N/A,Rain-Thunderstorm,Heavy Thunderstorms and Rain,240,2013-09-12 16:53:00
12:58 PM,76.8,69.4,78,29.83,1.2,Variable,6.9,33.4,0.13,Rain-Thunderstorm,Heavy Thunderstorms and Rain,0,2013-09-12 16:58:00
1:13 PM,69.8,68.0,94,29.79,5.0,Variable,3.5,-,N/A,Rain-Thunderstorm,Light Thunderstorms and Rain,0,2013-09-12 17:13:00
1:28 PM,71.6,69.8,94,29.78,10.0,SSE,6.9,-,N/A,Thunderstorm,Mostly Cloudy,150,2013-09-12 17:28:00
1:58 PM,76.3,71.2,84,29.78,10.0,SSE,8.1,-,0.27,,Mostly Cloudy,150,2013-09-12 17:58:00
2:28 PM,77.0,71.6,83,29.74,10.0,SE,5.8,-,N/A,Thunderstorm,Mostly Cloudy,140,2013-09-12 18:28:00
2:35 PM,75.2,71.6,89,29.73,10.0,SSE,5.8,-,N/A,Rain-Thunderstorm,Light Rain,150,2013-09-12 18:35:00
2:43 PM,75.2,69.8,83,29.73,10.0,SSE,6.9,-,N/A,Rain-Thunderstorm,Light Rain,150,2013-09-12 18:43:00
2:58 PM,74.3,70.2,87,29.75,10.0,NW,4.6,-,N/A,Rain-Thunderstorm,Light Rain,320,2013-09-12 18:58:00
3:26 PM,75.2,71.6,89,29.73,10.0,NW,6.9,-,N/A,Thunderstorm,Mostly Cloudy,320,2013-09-12 19:26:00
3:43 PM,75.2,71.6,89,29.75,10.0,NW,12.7,17.3,N/A,Thunderstorm,Thunderstorm,310,2013-09-12 19:43:00
3:58 PM,73.2,69.6,88,29.76,10.0,WNW,13.8,-,0.00,Rain-Thunderstorm,Light Thunderstorms and Rain,290,2013-09-12 19:58:00
4:13 PM,71.6,66.2,83,29.74,10.0,NW,4.6,-,N/A,Thunderstorm,Mostly Cloudy,310,2013-09-12 20:13:00
4:36 PM,71.6,66.2,83,29.72,10.0,NW,3.5,-,N/A,Thunderstorm,Thunderstorm,310,2013-09-12 20:36:00
4:58 PM,71.2,67.6,88,29.73,10.0,West,4.6,-,N/A,Thunderstorm,Mostly Cloudy,280,2013-09-12 20:58:00
5:58 PM,71.6,67.3,86,29.71,10.0,Variable,1.2,-,N/A,Thunderstorm,Overcast,0,2013-09-12 21:58:00
6:14 PM,71.6,68.0,88,29.71,10.0,WSW,3.5,-,N/A,Thunderstorm,Thunderstorm,240,2013-09-12 22:14:00
6:23 PM,71.6,68.0,88,29.70,10.0,Calm,Calm,-,N/A,Rain-Thunderstorm,Light Thunderstorms and Rain,0,2013-09-12 22:23:00
6:36 PM,71.6,68.0,88,29.71,2.5,West,9.2,-,N/A,Rain-Thunderstorm,Thunderstorms and Rain,260,2013-09-12 22:36:00
6:41 PM,71.6,68.0,88,29.72,0.9,West,8.1,-,N/A,Rain-Thunderstorm,Heavy Thunderstorms and Rain,270,2013-09-12 22:41:00
6:58 PM,69.4,68.9,98,29.73,0.9,Variable,3.5,-,0.40,Rain-Thunderstorm,Heavy Thunderstorms and Rain,0,2013-09-12 22:58:00
7:11 PM,69.8,68.0,94,29.69,5.0,East,3.5,-,N/A,Rain-Thunderstorm,Light Rain,90,2013-09-12 23:11:00
7:28 PM,69.8,68.0,94,29.69,10.0,NE,2.3,-,N/A,,Overcast,50,2013-09-12 23:28:00
7:58 PM,69.1,68.7,99,29.70,10.0,ENE,3.5,-,0.12,,Overcast,60,2013-09-12 23:58:00
8:26 PM,68.0,68.0,100,29.68,10.0,ESE,6.9,-,N/A,Thunderstorm,Overcast,110,2013-09-13 00:26:00
8:39 PM,69.8,68.0,94,29.71,5.0,South,8.1,-,N/A,Rain-Thunderstorm,Light Thunderstorms and Rain,180,2013-09-13 00:39:00
8:52 PM,69.8,68.0,94,29.73,2.0,SW,8.1,-,N/A,Rain-Thunderstorm,Thunderstorms and Rain,220,2013-09-13 00:52:00
8:58 PM,68.9,68.5,99,29.74,2.0,WSW,5.8,-,0.04,Rain-Thunderstorm,Thunderstorms and Rain,250,2013-09-13 00:58:00
9:11 PM,68.0,68.0,100,29.72,3.0,WNW,4.6,-,N/A,Rain-Thunderstorm,Light Rain,290,2013-09-13 01:11:00
9:25 PM,68.0,68.0,100,29.71,1.0,NW,4.6,-,N/A,Rain-Thunderstorm,Thunderstorms and Rain,320,2013-09-13 01:25:00
9:43 PM,68.0,66.2,94,29.70,4.0,Calm,Calm,-,N/A,Rain-Thunderstorm,Light Rain,0,2013-09-13 01:43:00
9:58 PM,66.9,66.2,98,29.71,7.0,Calm,Calm,-,0.31,Rain,Light Rain,0,2013-09-13 01:58:00
10:26 PM,66.2,66.2,100,29.66,4.0,WNW,6.9,-,N/A,Rain-Thunderstorm,Thunderstorms and Rain,290,2013-09-13 02:26:00
10:58 PM,66.4,66.0,99,29.69,4.0,SSE,2.3,-,0.19,Rain-Thunderstorm,Thunderstorms and Rain,150,2013-09-13 02:58:00
11:58 PM,66.2,65.8,99,29.70,3.0,Variable,3.5,-,0.17,Rain-Thunderstorm,Rain,0,2013-09-13 03:58:00